Regional Weather Roundup
Issued by NWS

Home | Current Version | Previous Version | Text Only | Print | Product List | Glossary Off
Versions: 1 2 3 4 5 6 7 8 9 10 11 12 13 14 15 16 17 18 19 20 21 22 23 24 25 26 27 28 29 30 31 32 33 34 35 36 37 38 39 40 41 42 43 44 45 46 47 48 49 50

000
ASUS43 KFSD 190102
RWRSD

WEATHER ROUNDUP FOR SOUTH DAKOTA
NATIONAL WEATHER SERVICE SIOUX FALLS SD
700 PM CST SAT NOV 18 2017

NOTE: "FAIR" INDICATES FEW OR NO CLOUDS BELOW 12,000 FEET WITH NO
SIGNIFICANT WEATHER AND/OR OBSTRUCTIONS TO VISIBILITY.


SDZ001>005-009-010-012>017-190200-
NORTHWEST AND NORTH CENTRAL SOUTH DAKOTA

CITY           SKY/WX    TMP DP  RH WIND       PRES   REMARKS
BUFFALO          N/A     35  22  58 W12       30.04F WCI  27
FAITH            N/A     32  25  75 CALM      30.12R
MOBRIDGE       PTCLDY    24  16  71 W3        30.10S
$$

SDZ012>016-024>037-041>051-057-063-072>074-190200-
SOUTHWEST AND SOUTH CENTRAL SOUTH DAKOTA

CITY           SKY/WX    TMP DP  RH WIND       PRES   REMARKS
RAPID CTY ARPT PTCLDY    31  20  63 N12       30.15R WCI  22
PIERRE         PTCLDY    29  21  72 N3        30.14R
CUSTER         CLOUDY    30  11  45 NW7       30.12R WCI  23
ELLSWORTH AFB  CLEAR     38  20  47 N9        30.14R
PHILIP         MOCLDY    30  24  78 W5        30.15S WCI  25
PINE RIDGE     CLEAR     29  16  58 CALM      30.16S
SPEARFISH      FAIR      32  16  51 W7        30.14R WCI  26
WINNER         FAIR      33  22  63 CALM      30.16R
$$

SDZ004>011-016>023-039-040-190200-
NORTHEAST SOUTH DAKOTA

CITY           SKY/WX    TMP DP  RH WIND       PRES   REMARKS
ABERDEEN       CLEAR     23  13  65 W8        30.13R WCI  14
WATERTOWN      CLEAR     22  13  68 NW10      30.06S WCI  11
BROOKINGS      CLEAR     24  16  71 NW10      30.08R WCI  14
SISSETON         N/A     18  10  71 NW7       30.09S WCI   9
$$

SDZ017-020-022-023-036>040-048>070-190200-
SOUTHEAST SOUTH DAKOTA

CITY           SKY/WX    TMP DP  RH WIND       PRES   REMARKS
SIOUX FALLS    CLEAR     30  17  58 NW13G22   30.11R WCI  20
HURON          CLEAR     21  14  74 W6        30.14S WCI  13
CHAMBERLAIN    CLEAR     30  22  72 NW7       30.16S WCI  24
MITCHELL       CLEAR     25  16  68 NW7       30.17R WCI  17
YANKTON        CLEAR     30  21  69 W12       30.16R WCI  20
$$

ABBREVIATIONS USED IN REMARKS
   TC - TEMPERATURE IN CELSIUS
  WCI - WIND CHILL INDEX
   HX - HEAT INDEX
  VSB - VISIBILITY





USA.gov is the U.S. government's official web portal to all federal, state and local government web resources and services.